OpenBCM V1.08-5-g2f4a (Linux)

Packet Radio Mailbox

IZ3LSV

[San Dona' di P. JN]

 Login: GUEST





  
CX2SA  > KEP      31.01.20 06:03l 85 Lines 3570 Bytes #999 (0) @ ARL
BID : ARLK006
Read: GUEST
Subj: ARLK006 Keplerian data
Path: IZ3LSV<IQ2LB<IK1NHL<CX2SA
Sent: 200121/2255Z @:CX2SA.SAL.URY.SOAM #:23391 [Salto] FBB7.00e $:ARLK006
From: CX2SA@CX2SA.SAL.URY.SOAM
To  : KEP@ARL


ZCZC SK06
QST de W1AW
Keplerian Bulletin 6  ARLK006
From ARRL Headquarters
Newington, CT  January 21, 2020
To all radio amateurs

SB KEP ARL ARLK006
ARLK006 Keplerian data

Special thanks to Space-Track.org for the following Keplerian data.

Decode 2-line elsets with the following key:
1 AAAAAU 00  0  0 BBBBB.BBBBBBBB  .CCCCCCCC  00000-0  00000-0 0  DDDZ
2 AAAAA EEE.EEEE FFF.FFFF GGGGGGG HHH.HHHH III.IIII JJ.JJJJJJJJKKKKKZ
KEY: A-CATALOGNUM B-EPOCHTIME C-DECAY D-ELSETNUM E-INCLINATION F-RAAN
G-ECCENTRICITY H-ARGPERIGEE I-MNANOM J-MNMOTION K-ORBITNUM Z-CHECKSUM

AO-07
1  7530U 74089B   20020.88715115 -.00000032  00000-0  83192-4 0  9996
2  7530 101.7788 351.5871 0011997 291.2373 123.6874 12.53641772 67612
FO-29
1 24278U 96046B   20021.35468784 -.00000043  00000-0 -90526-5 0  9994
2 24278  98.5656 150.7182 0351008  38.5886 323.9790 13.53094989157101
ISS
1 25544U 98067A   20021.68131944 -.00000455  00000-0  00000+0 0  9995
2 25544  51.6458 358.3116 0004839 151.5496 188.7728 15.49572642209145
SO-50
1 27607U 02058C   20021.49024249 -.00000061  00000-0  12129-4 0  9993
2 27607  64.5556 106.7556 0065893 213.2806 146.4146 14.75603815919025
CO-55
1 27844U 03031E   20021.48227616  .00000040  00000-0  37848-4 0  9991
2 27844  98.6836  31.4392 0010763 120.9463 239.2773 14.22216820859105
RS-22
1 27939U 03042A   20021.56613236  .00000056  00000-0  18725-4 0  9994
2 27939  98.0665 158.5618 0014244 100.6045 259.6774 14.66831325872333
RS-30
1 32953U 08025A   20021.46801530  .00000037  00000-0  19437-3 0  9996
2 32953  82.5032   9.9441 0019827  20.0369 340.1484 12.43093799529241
KKS-1
1 33499U 09002H   20021.54947500  .00000039  00000-0  13796-4 0  9990
2 33499  98.3315 231.9889 0008108 231.6788 128.3691 14.75497283591208
AO-71
1 37854U 11061E   20020.98674450  .00000852  00000-0  50798-4 0  9991
2 37854 101.7137  35.6077 0159428 143.2037 218.0245 15.06929855449566
AO-73
1 39444U 13066AE  20021.10261728 +.00000246 +00000-0 +36447-4 0  9992
2 39444 097.5575 029.5526 0058918 038.5106 322.0290 14.82048006331397
UKUBE 1
1 40074U 14037F   20021.45624420  .00000161  00000-0  26487-4 0  9991
2 40074  98.4507 201.0009 0003202 226.5517 133.5441 14.84176899299803
XW-2A
1 40903U 15049E   20021.50112906  .00001241  00000-0  30486-4 0  9997
2 40903  97.3111  70.2116 0015208  81.2527  26.2894 15.42540920243662
XW-2F
1 40910U 15049M   20021.50191668  .00000590  00000-0  32570-4 0  9999
2 40910  97.4665  27.1136 0015361 149.8471   7.4062 15.17658289239895
XW-2B
1 40911U 15049N   20021.52376583  .00000552  00000-0  32102-4 0  9992
2 40911  97.4736  25.4762 0014321 158.8641 319.5389 15.16040296239751
IO-86
1 40931U 15052B   20018.73005918  .00000648  00000-0  10682-5 0  9994
2 40931   5.9994 330.2874 0014069 304.6802  55.2080 14.76624043232942
CAS-4B
1 42759U 17034B   20021.49295817 -.00000038  00000-0  11161-4 0  9998
2 42759  43.0185 119.9332 0011186 185.1123 282.4283 15.09723968143609
CAS-4A
1 42761U 17034D   20021.51196253  .00000030  00000-0  15304-4 0  9992
2 42761  43.0183 119.2243 0011125 186.2642 285.9941 15.09802468143607
AO-91
1 43017U 17073E   20021.34688678  .00000178  00000-0  19339-4 0  9993
2 43017  97.7271 299.2747 0257645 172.5278 187.9894 14.78774683117270
AO-92
1 43137U 18004AC  20021.15882556 +.00000742 +00000-0 +33744-4 0  9994
2 43137 097.4641 093.2181 0008417 207.7514 152.3275 15.23834038112467

Keplerian bulletins are transmitted twice weekly from W1AW.  The
next scheduled transmission of these data will be Friday, January
24, 2020, at 2230z on Baudot and BPSK31.
NNNN


Read previous mail | Read next mail


 14.10.2025 05:01:02lGo back Go up